Tracking 18840 objects as of 17-November-2017
HD Live streaming from Space Station
objects crossing your sky now

FENGYUN 1C DEB

Track FENGYUN 1C DEB now!
10-day predictions


NORAD ID: 30280
Int'l Code: 1999-025YR
Perigee: 854.3 km
Apogee: 972.3 km
Inclination: 99.0 °
Period: 103.1 minutes
Semi major axis: 7284 km
RCS: 0.043 m2 (small)
Launch date: May 10, 1999
Source: People's Republic of China (PRC)
Launch site: Taiyaun Space Center, China (TSC)

Note: This is SATELLITE DEBRIS
aabbcc
Your satellite tracking list
Your tracking list is empty




NASA's NSSDC Master Catalog

Two Line Element Set (TLE):
1 30280U 99025YR  17321.17438218  .00000246  00000-0  20380-3 0  9994
2 30280  99.0198  19.3970 0080993 188.5478 233.9420 13.96446951552643
Source of the keplerian elements: AFSPC